{"data":{"norad_id":46709,"intl_designator":"2020-073AR","name":"STARLINK-1810","alt_names":[],"object_type":"PAYLOAD","status":"ACTIVE","operator":null,"country":"US","launch_date":"2020-10-18","launch_site_code":"AFETR","launch_vehicle":null,"mission":null,"orbit_class":"UNKNOWN","rcs_meters":null,"size_class":null,"mass_kg":null,"dimensions":null,"purposes":["comms"],"wikipedia_slug":null,"has_3d_model":false,"image_url":null,"decayed_at":null,"tle_current":{"epoch":"2026-05-24T22:03:32.150304Z","epoch_age_seconds":92158,"freshness":"FRESH","line1":"1 46709U 20073AR  26144.91912211  .00086130  00000+0  10302-2 0  9996","line2":"2 46709  53.0415 224.0964 0006101 350.5122   9.5774 15.60263848309118","mean_motion":15.60263848,"eccentricity":0.0006101,"inclination_deg":53.0415,"raan_deg":224.0964,"arg_perigee_deg":350.5122,"mean_anomaly_deg":9.5774,"bstar":0.0010302,"rev_number":30911,"period_min":92.292082640115,"perigee_km":382.76696179968,"apogee_km":391.02165300097,"semimajor_km":6765.0313074003,"source":"CELESTRAK","updated_at":"2026-05-25T13:38:16.517103Z"}}}